Location: Cuzcurrita-R�o Tir�n
(42.5415°N, 2.9642°W)
Time: 21:33:33
(UTC+00:00)

Cosmos 1939 Rocket - Pass Details

Date: 17 January 2021
Orbit: 531 x 585 km, 97.4° (Epoch: 03 March)

Event Time Altitude Azimuth Distance (km) Brightness Sun altitude
Rises 17:44:05 0° 151° (SSE) 2,797 6.4 -7.1°
Reaches altitude 10° 17:46:17 10° 145° (SE) 1,900 5.4 -7.5°
Maximum altitude 17:50:14 45° 73° (ENE) 798 3.2 -8.2°
Drops below altitude 10° 17:54:10 10° 0° (N) 1,900 5.4 -8.8°
Sets 17:56:23 0° 355° (N) 2,797 6.3 -9.2°
